Location: Borotín
(49.5055°N, 14.6142°E)
Time: 11:52:33
(UTC+00:00)

Cosmos 2219 Rocket - Pass Details

Date: 27 May 2022
Orbit: 827 x 847 km, 71.0° (Epoch: 27 June)

Event Time Altitude Azimuth Distance (km) Brightness Sun altitude
Exits shadow 00:26:43 - 258° (WSW) 2,692 4.5 -16.6°
Reaches altitude 10° 00:27:34 10° 263° (W) 2,434 4.3 -16.5°
Maximum altitude 00:32:05 25° 317° (NW) 1,629 3.9 -16.2°
Drops below altitude 10° 00:36:39 10° 12° (NNE) 2,449 5.9 -16.0°
Sets 00:39:34 0° 26° (NNE) 3,389 7.2 -15.8°
